NOAA 16 DEB, 41358

Orbit data source: Space-Track

NOAA 16 DEB, 41358 is space debris in SSO originally from a launch on Thu, 21 Sep 2000 UTC launched from the Air Force Western Test Range (AFWTR). Debris objects in space refer to the collection of defunct objects orbiting the Earth. Examples of debris include non-operational satellites, rocket bodies, and fragments generated from explosions, collisions, or faulty payload assembly.

Loading next visibility...
Identifier
41358, 2000-055JB
Orbit
SSO
Country
Flag of USUS
Related business
Manufacturer
Unknown
Mission
Spacecraft
Bus & Motor
Unknown
Mass
Unknown
Launch date (UTC)
2000-09-21 (26 years ago)
Launch vehicle
Unknown
Launch site
Air Force Western Test Range (AFWTR)
Object type
Payload
Rocket body
Debris
Shape & HBR
Unknown shape, 0.1 m
Radar Cross Section
Medium (>0.1 m² and <1 m²)

Expand to show TLE details & history
Last TLE update: 2 days ago

TLE from 2 days ago
0 NOAA 16 DEB
1 41358U 00055JB  26252.41623457  .00001777  00000-0  72799-3 0  9999
2 41358  98.6167 310.0096 0016994  89.3173 270.9955 14.28335676548211
Epoch: 2026-09-09T09:59Z
TLE epoch observation values (Epoch: 2026-09-09T09:59:22.666Z)
Latitude
-0.0001°
Longitude
171.69656°
Altitude
800.037 km
Speed
7.454 km/s
True Right ascension
20h 40m 02s
True Declination
0° 00' 00"
Sunlit
Object was in full shadow at epoch
Visualization orbit readout
Latitude
Unknown
Longitude
Unknown
Altitude
Unknown
Speed
Unknown
Apparent Right ascension
Unknown
Apparent Declination
Unknown
Sunlit
N/A
Visualization observer readout
Local Sidereal Time
10:36:15
Azimuth
Unknown
Elevation
Unknown
Doppler factor
Unknown
Orbital elements
Apogee altitude
806.631 km
Perigee altitude
782.253 km
Semi-major axis
7,172.579 km
Eccentricity
0.0017
Inclination
98.6167°
RAAN
310.0096°
Arg. of periapsis
89.3173°
True anomaly
270.80079°
Mean anomaly
270.9955°
Eccentric anomaly
270.89814°
Mean motion
3.57298 °/min
Orbital period
100.76 mins
BSTAR
0.00072799
Loading maneuver chart data...
Computing Atmospheric mass density...
Loading historical data...
Loading historical data...
Loading historical data...
Loading historical data...
Loading historical data...
Loading historical data...
Loading historical data...

Documentation

Showing up to 5 results
|